owner,sensor,date,latitude,longitude,vertical_datum,sea_water_temperature,qcFlag
BHP,ioos:station:wmo:42383:2,2021-05-14T20:18:00Z,27.3704,-89.9241,27.9,24.8,11111222
BHP,ioos:station:wmo:42383:2,2021-05-14T20:38:00Z,27.3704,-89.9241,27.9,24.7,11111222
BHP,ioos:station:wmo:42383:2,2021-05-14T20:58:00Z,27.3704,-89.9241,27.9,24.7,11111222
BHP,ioos:station:wmo:42383:2,2021-05-14T21:18:00Z,27.3704,-89.9241,27.9,24.9,11111222
BHP,ioos:station:wmo:42383:2,2021-05-14T21:38:00Z,27.3704,-89.9241,27.9,24.7,11111222
BHP,ioos:station:wmo:42383:2,2021-05-14T21:58:00Z,27.3704,-89.9241,27.9,24.8,11111222
BHP,ioos:station:wmo:42383:2,2021-05-14T22:18:00Z,27.3704,-89.9241,27.9,24.9,11111222
BHP,ioos:station:wmo:42383:2,2021-05-14T22:38:00Z,27.3704,-89.9241,27.9,24.8,11111222
BHP,ioos:station:wmo:42383:2,2021-05-14T22:58:00Z,27.3704,-89.9241,27.9,25.0,11111222
BHP,ioos:station:wmo:42383:2,2021-05-14T23:18:00Z,27.3704,-89.9241,27.9,24.8,11111222
BHP,ioos:station:wmo:42383:2,2021-05-14T23:38:00Z,27.3704,-89.9241,27.9,24.9,11111222
BHP,ioos:station:wmo:42383:2,2021-05-14T23:58:00Z,27.3704,-89.9241,27.9,25.1,11111222
BHP,ioos:station:wmo:42383:2,2021-05-15T00:18:00Z,27.3704,-89.9241,27.9,25.4,11111222
BHP,ioos:station:wmo:42383:2,2021-05-15T00:38:00Z,27.3704,-89.9241,27.9,25.3,11111222
BHP,ioos:station:wmo:42383:2,2021-05-15T00:58:00Z,27.3704,-89.9241,27.9,25.6,11111222
BHP,ioos:station:wmo:42383:2,2021-05-15T01:18:00Z,27.3704,-89.9241,27.9,25.6,11111222
BHP,ioos:station:wmo:42383:2,2021-05-15T01:38:00Z,27.3704,-89.9241,27.9,25.6,11111222
BHP,ioos:station:wmo:42383:2,2021-05-15T01:58:00Z,27.3704,-89.9241,27.9,25.5,11111222
BHP,ioos:station:wmo:42383:2,2021-05-15T02:18:00Z,27.3704,-89.9241,27.9,25.3,11111222
BHP,ioos:station:wmo:42383:2,2021-05-15T02:38:00Z,27.3704,-89.9241,27.9,25.2,11111222
BHP,ioos:station:wmo:42383:2,2021-05-15T02:58:00Z,27.3704,-89.9241,27.9,25.6,11111222
BHP,ioos:station:wmo:42383:2,2021-05-15T03:18:00Z,27.3704,-89.9241,27.9,25.5,11111222
BHP,ioos:station:wmo:42383:2,2021-05-15T03:38:00Z,27.3704,-89.9241,27.9,25.3,11111222
BHP,ioos:station:wmo:42383:2,2021-05-15T03:58:00Z,27.3704,-89.9241,27.9,25.4,11111222
BHP,ioos:station:wmo:42383:2,2021-05-15T04:18:00Z,27.3704,-89.9241,27.9,25.3,11111222
BHP,ioos:station:wmo:42383:2,2021-05-15T04:38:00Z,27.3704,-89.9241,27.9,25.5,11111222
BHP,ioos:station:wmo:42383:2,2021-05-15T04:58:00Z,27.3704,-89.9241,27.9,25.5,11111222
BHP,ioos:station:wmo:42383:2,2021-05-15T05:18:00Z,27.3704,-89.9241,27.9,25.4,11111222
BHP,ioos:station:wmo:42383:2,2021-05-15T05:38:00Z,27.3704,-89.9241,27.9,25.4,11111222
BHP,ioos:station:wmo:42383:2,2021-05-15T05:58:00Z,27.3704,-89.9241,27.9,25.6,11111222
BHP,ioos:station:wmo:42383:2,2021-05-15T06:18:00Z,27.3704,-89.9241,27.9,25.6,11111222
BHP,ioos:station:wmo:42383:2,2021-05-15T06:38:00Z,27.3704,-89.9241,27.9,25.4,11111222
BHP,ioos:station:wmo:42383:2,2021-05-15T06:58:00Z,27.3704,-89.9241,27.9,25.0,11111222
BHP,ioos:station:wmo:42383:2,2021-05-15T07:18:00Z,27.3704,-89.9241,27.9,25.1,11111222
BHP,ioos:station:wmo:42383:2,2021-05-15T07:38:00Z,27.3704,-89.9241,27.9,24.9,11111222
BHP,ioos:station:wmo:42383:2,2021-05-15T07:58:00Z,27.3704,-89.9241,27.9,24.9,11111222
BHP,ioos:station:wmo:42383:2,2021-05-15T08:18:00Z,27.3704,-89.9241,27.9,25.6,11111222
BHP,ioos:station:wmo:42383:2,2021-05-15T08:38:00Z,27.3704,-89.9241,27.9,25.2,11111222
BHP,ioos:station:wmo:42383:2,2021-05-15T08:58:00Z,27.3704,-89.9241,27.9,25.3,11111222
BHP,ioos:station:wmo:42383:2,2021-05-15T09:18:00Z,27.3704,-89.9241,27.9,25.0,11111222
BHP,ioos:station:wmo:42383:2,2021-05-15T09:38:00Z,27.3704,-89.9241,27.9,24.7,11111222
BHP,ioos:station:wmo:42383:2,2021-05-15T09:58:00Z,27.3704,-89.9241,27.9,24.8,11111222
BHP,ioos:station:wmo:42383:2,2021-05-15T10:18:00Z,27.3704,-89.9241,27.9,24.9,11111222
BHP,ioos:station:wmo:42383:2,2021-05-15T10:38:00Z,27.3704,-89.9241,27.9,24.7,11111222
BHP,ioos:station:wmo:42383:2,2021-05-15T10:58:00Z,27.3704,-89.9241,27.9,24.9,11111222
BHP,ioos:station:wmo:42383:2,2021-05-15T11:18:00Z,27.3704,-89.9241,27.9,24.8,11111222
BHP,ioos:station:wmo:42383:2,2021-05-15T11:38:00Z,27.3704,-89.9241,27.9,24.6,11111222
BHP,ioos:station:wmo:42383:2,2021-05-15T11:58:00Z,27.3704,-89.9241,27.9,24.7,11111222
BHP,ioos:station:wmo:42383:2,2021-05-15T12:18:00Z,27.3704,-89.9241,27.9,24.6,11111222
BHP,ioos:station:wmo:42383:2,2021-05-15T12:38:00Z,27.3704,-89.9241,27.9,25.0,11111222
BHP,ioos:station:wmo:42383:2,2021-05-15T12:58:00Z,27.3704,-89.9241,27.9,25.1,11111222
BHP,ioos:station:wmo:42383:2,2021-05-15T13:18:00Z,27.3704,-89.9241,27.9,24.7,11111222
BHP,ioos:station:wmo:42383:2,2021-05-15T13:38:00Z,27.3704,-89.9241,27.9,24.8,11111222
BHP,ioos:station:wmo:42383:2,2021-05-15T13:58:00Z,27.3704,-89.9241,27.9,25.1,11111222
BHP,ioos:station:wmo:42383:2,2021-05-15T14:18:00Z,27.3704,-89.9241,27.9,24.9,11111222
BHP,ioos:station:wmo:42383:2,2021-05-15T14:38:00Z,27.3704,-89.9241,27.9,25.0,11111222
BHP,ioos:station:wmo:42383:2,2021-05-15T14:58:00Z,27.3704,-89.9241,27.9,24.9,11111222
BHP,ioos:station:wmo:42383:2,2021-05-15T15:18:00Z,27.3704,-89.9241,27.9,24.9,11111222
BHP,ioos:station:wmo:42383:2,2021-05-15T15:38:00Z,27.3704,-89.9241,27.9,25.1,11111222
BHP,ioos:station:wmo:42383:2,2021-05-15T15:58:00Z,27.3704,-89.9241,27.9,25.0,11111222
BHP,ioos:station:wmo:42383:2,2021-05-15T16:18:00Z,27.3704,-89.9241,27.9,24.7,11111222
BHP,ioos:station:wmo:42383:2,2021-05-15T16:38:00Z,27.3704,-89.9241,27.9,24.9,11111222
BHP,ioos:station:wmo:42383:2,2021-05-15T16:58:00Z,27.3704,-89.9241,27.9,25.2,11111222
BHP,ioos:station:wmo:42383:2,2021-05-15T17:18:00Z,27.3704,-89.9241,27.9,24.9,11111222
BHP,ioos:station:wmo:42383:2,2021-05-15T17:38:00Z,27.3704,-89.9241,27.9,25.5,11111222
BHP,ioos:station:wmo:42383:2,2021-05-15T17:58:00Z,27.3704,-89.9241,27.9,25.1,11111222
BHP,ioos:station:wmo:42383:2,2021-05-15T18:18:00Z,27.3704,-89.9241,27.9,25.6,11111222
BHP,ioos:station:wmo:42383:2,2021-05-15T18:38:00Z,27.3704,-89.9241,27.9,25.7,11111222
BHP,ioos:station:wmo:42383:2,2021-05-15T18:58:00Z,27.3704,-89.9241,27.9,25.3,11111222
BHP,ioos:station:wmo:42383:2,2021-05-15T19:18:00Z,27.3704,-89.9241,27.9,25.2,11111222
BHP,ioos:station:wmo:42383:2,2021-05-15T19:38:00Z,27.3704,-89.9241,27.9,25.5,11111222
BHP,ioos:station:wmo:42383:2,2021-05-15T19:58:00Z,27.3704,-89.9241,27.9,25.4,11111222
BHP,ioos:station:wmo:42383:2,2021-05-15T20:18:00Z,27.3704,-89.9241,27.9,25.6,11111222
BHP,ioos:station:wmo:42383:2,2021-05-15T20:38:00Z,27.3704,-89.9241,27.9,25.8,11111222
BHP,ioos:station:wmo:42383:2,2021-05-15T20:58:00Z,27.3704,-89.9241,27.9,25.6,11111222
BHP,ioos:station:wmo:42383:2,2021-05-15T21:18:00Z,27.3704,-89.9241,27.9,25.7,11111222
BHP,ioos:station:wmo:42383:2,2021-05-15T21:38:00Z,27.3704,-89.9241,27.9,25.3,11111222
BHP,ioos:station:wmo:42383:2,2021-05-15T21:58:00Z,27.3704,-89.9241,27.9,25.3,11111222
BHP,ioos:station:wmo:42383:2,2021-05-15T22:18:00Z,27.3704,-89.9241,27.9,25.4,11111222
BHP,ioos:station:wmo:42383:2,2021-05-15T22:38:00Z,27.3704,-89.9241,27.9,25.3,11111222
BHP,ioos:station:wmo:42383:2,2021-05-15T22:58:00Z,27.3704,-89.9241,27.9,25.3,11111222
BHP,ioos:station:wmo:42383:2,2021-05-15T23:18:00Z,27.3704,-89.9241,27.9,25.4,11111222
BHP,ioos:station:wmo:42383:2,2021-05-15T23:38:00Z,27.3704,-89.9241,27.9,25.6,11111222
BHP,ioos:station:wmo:42383:2,2021-05-15T23:58:00Z,27.3704,-89.9241,27.9,25.5,11111222
BHP,ioos:station:wmo:42383:2,2021-05-16T00:18:00Z,27.3704,-89.9241,27.9,25.4,11111222
BHP,ioos:station:wmo:42383:2,2021-05-16T00:38:00Z,27.3704,-89.9241,27.9,25.4,11111222
BHP,ioos:station:wmo:42383:2,2021-05-16T00:58:00Z,27.3704,-89.9241,27.9,25.7,11111222
BHP,ioos:station:wmo:42383:2,2021-05-16T01:18:00Z,27.3704,-89.9241,27.9,25.6,11111222
BHP,ioos:station:wmo:42383:2,2021-05-16T01:38:00Z,27.3704,-89.9241,27.9,25.4,11111222
BHP,ioos:station:wmo:42383:2,2021-05-16T01:58:00Z,27.3704,-89.9241,27.9,25.5,11111222
BHP,ioos:station:wmo:42383:2,2021-05-16T02:18:00Z,27.3704,-89.9241,27.9,25.7,11111222
BHP,ioos:station:wmo:42383:2,2021-05-16T02:38:00Z,27.3704,-89.9241,27.9,25.6,11111222
BHP,ioos:station:wmo:42383:2,2021-05-16T02:58:00Z,27.3704,-89.9241,27.9,25.6,11111222
BHP,ioos:station:wmo:42383:2,2021-05-16T03:18:00Z,27.3704,-89.9241,27.9,25.5,11111222
BHP,ioos:station:wmo:42383:2,2021-05-16T03:38:00Z,27.3704,-89.9241,27.9,25.5,11111222
BHP,ioos:station:wmo:42383:2,2021-05-16T03:58:00Z,27.3704,-89.9241,27.9,25.5,11111222
BHP,ioos:station:wmo:42383:2,2021-05-16T04:18:00Z,27.3704,-89.9241,27.9,25.6,11111222
BHP,ioos:station:wmo:42383:2,2021-05-16T04:38:00Z,27.3704,-89.9241,27.9,25.4,11111222
BHP,ioos:station:wmo:42383:2,2021-05-16T04:58:00Z,27.3704,-89.9241,27.9,25.4,11111222
BHP,ioos:station:wmo:42383:2,2021-05-16T05:18:00Z,27.3704,-89.9241,27.9,25.2,11111222
BHP,ioos:station:wmo:42383:2,2021-05-16T05:38:00Z,27.3704,-89.9241,27.9,25.3,11111222
BHP,ioos:station:wmo:42383:2,2021-05-16T05:58:00Z,27.3704,-89.9241,27.9,25.4,11111222
BHP,ioos:station:wmo:42383:2,2021-05-16T06:18:00Z,27.3704,-89.9241,27.9,25.1,11111222
BHP,ioos:station:wmo:42383:2,2021-05-16T06:38:00Z,27.3704,-89.9241,27.9,25.3,11111222
BHP,ioos:station:wmo:42383:2,2021-05-16T06:58:00Z,27.3704,-89.9241,27.9,25.2,11111222
BHP,ioos:station:wmo:42383:2,2021-05-16T07:18:00Z,27.3704,-89.9241,27.9,25.1,11111222
BHP,ioos:station:wmo:42383:2,2021-05-16T07:38:00Z,27.3704,-89.9241,27.9,25.2,11111222
BHP,ioos:station:wmo:42383:2,2021-05-16T07:58:00Z,27.3704,-89.9241,27.9,25.6,11111222
BHP,ioos:station:wmo:42383:2,2021-05-16T08:18:00Z,27.3704,-89.9241,27.9,25.6,11111222
BHP,ioos:station:wmo:42383:2,2021-05-16T08:38:00Z,27.3704,-89.9241,27.9,25.4,11111222
BHP,ioos:station:wmo:42383:2,2021-05-16T08:58:00Z,27.3704,-89.9241,27.9,25.5,11111222
BHP,ioos:station:wmo:42383:2,2021-05-16T09:18:00Z,27.3704,-89.9241,27.9,25.3,11111222
BHP,ioos:station:wmo:42383:2,2021-05-16T09:38:00Z,27.3704,-89.9241,27.9,25.6,11111222
BHP,ioos:station:wmo:42383:2,2021-05-16T09:58:00Z,27.3704,-89.9241,27.9,25.6,11111222
BHP,ioos:station:wmo:42383:2,2021-05-16T10:18:00Z,27.3704,-89.9241,27.9,25.7,11111222
BHP,ioos:station:wmo:42383:2,2021-05-16T10:38:00Z,27.3704,-89.9241,27.9,25.5,11111222
BHP,ioos:station:wmo:42383:2,2021-05-16T10:58:00Z,27.3704,-89.9241,27.9,25.7,11111222
BHP,ioos:station:wmo:42383:2,2021-05-16T11:18:00Z,27.3704,-89.9241,27.9,25.5,11111222
BHP,ioos:station:wmo:42383:2,2021-05-16T11:38:00Z,27.3704,-89.9241,27.9,25.5,11111222
BHP,ioos:station:wmo:42383:2,2021-05-16T11:58:00Z,27.3704,-89.9241,27.9,25.5,11111222
BHP,ioos:station:wmo:42383:2,2021-05-16T12:18:00Z,27.3704,-89.9241,27.9,25.6,11111222
BHP,ioos:station:wmo:42383:2,2021-05-16T12:38:00Z,27.3704,-89.9241,27.9,25.5,11111222
BHP,ioos:station:wmo:42383:2,2021-05-16T12:58:00Z,27.3704,-89.9241,27.9,25.5,11111222
BHP,ioos:station:wmo:42383:2,2021-05-16T13:18:00Z,27.3704,-89.9241,27.9,25.2,11111222
BHP,ioos:station:wmo:42383:2,2021-05-16T13:38:00Z,27.3704,-89.9241,27.9,25.4,11111222
BHP,ioos:station:wmo:42383:2,2021-05-16T13:58:00Z,27.3704,-89.9241,27.9,25.4,11111222
BHP,ioos:station:wmo:42383:2,2021-05-16T14:18:00Z,27.3704,-89.9241,27.9,25.5,11111222
BHP,ioos:station:wmo:42383:2,2021-05-16T14:38:00Z,27.3704,-89.9241,27.9,25.4,11111222
BHP,ioos:station:wmo:42383:2,2021-05-16T14:58:00Z,27.3704,-89.9241,27.9,24.9,11111222
BHP,ioos:station:wmo:42383:2,2021-05-16T15:18:00Z,27.3704,-89.9241,27.9,25.3,11111222
BHP,ioos:station:wmo:42383:2,2021-05-16T15:38:00Z,27.3704,-89.9241,27.9,25.2,11111222
BHP,ioos:station:wmo:42383:2,2021-05-16T15:58:00Z,27.3704,-89.9241,27.9,25.2,11111222
BHP,ioos:station:wmo:42383:2,2021-05-16T16:18:00Z,27.3704,-89.9241,27.9,25.5,11111222
BHP,ioos:station:wmo:42383:2,2021-05-16T16:38:00Z,27.3704,-89.9241,27.9,25.7,11111222
BHP,ioos:station:wmo:42383:2,2021-05-16T16:58:00Z,27.3704,-89.9241,27.9,25.4,11111222
BHP,ioos:station:wmo:42383:2,2021-05-16T17:18:00Z,27.3704,-89.9241,27.9,25.4,11111222
BHP,ioos:station:wmo:42383:2,2021-05-16T17:38:00Z,27.3704,-89.9241,27.9,25.4,11111222
BHP,ioos:station:wmo:42383:2,2021-05-16T17:58:00Z,27.3704,-89.9241,27.9,25.4,11111222
BHP,ioos:station:wmo:42383:2,2021-05-16T18:18:00Z,27.3704,-89.9241,27.9,25.5,11111222
BHP,ioos:station:wmo:42383:2,2021-05-16T18:38:00Z,27.3704,-89.9241,27.9,25.5,11111222
BHP,ioos:station:wmo:42383:2,2021-05-16T18:58:00Z,27.3704,-89.9241,27.9,25.5,11111222
BHP,ioos:station:wmo:42383:2,2021-05-16T19:18:00Z,27.3704,-89.9241,27.9,25.5,11111222
BHP,ioos:station:wmo:42383:2,2021-05-16T19:38:00Z,27.3704,-89.9241,27.9,25.5,11111222
BHP,ioos:station:wmo:42383:2,2021-05-16T19:58:00Z,27.3704,-89.9241,27.9,25.6,11111222
BHP,ioos:station:wmo:42383:2,2021-05-16T20:18:00Z,27.3704,-89.9241,27.9,25.5,11111222
BHP,ioos:station:wmo:42383:2,2021-05-16T20:38:00Z,27.3704,-89.9241,27.9,25.5,11111222
BHP,ioos:station:wmo:42383:2,2021-05-16T20:58:00Z,27.3704,-89.9241,27.9,25.7,11111222
BHP,ioos:station:wmo:42383:2,2021-05-16T21:18:00Z,27.3704,-89.9241,27.9,25.7,11111222
BHP,ioos:station:wmo:42383:2,2021-05-16T21:38:00Z,27.3704,-89.9241,27.9,25.7,11111222
BHP,ioos:station:wmo:42383:2,2021-05-16T21:58:00Z,27.3704,-89.9241,27.9,25.1,11111222
BHP,ioos:station:wmo:42383:2,2021-05-16T22:18:00Z,27.3704,-89.9241,27.9,25.4,11111222
BHP,ioos:station:wmo:42383:2,2021-05-16T22:38:00Z,27.3704,-89.9241,27.9,25.3,11111222
BHP,ioos:station:wmo:42383:2,2021-05-16T22:58:00Z,27.3704,-89.9241,27.9,24.8,11111222
BHP,ioos:station:wmo:42383:2,2021-05-16T23:18:00Z,27.3704,-89.9241,27.9,24.9,11111222
BHP,ioos:station:wmo:42383:2,2021-05-16T23:38:00Z,27.3704,-89.9241,27.9,24.9,11111222
BHP,ioos:station:wmo:42383:2,2021-05-16T23:58:00Z,27.3704,-89.9241,27.9,24.7,11111222
BHP,ioos:station:wmo:42383:2,2021-05-17T00:18:00Z,27.3704,-89.9241,27.9,24.8,11111222
BHP,ioos:station:wmo:42383:2,2021-05-17T00:38:00Z,27.3704,-89.9241,27.9,24.9,11111222
BHP,ioos:station:wmo:42383:2,2021-05-17T00:58:00Z,27.3704,-89.9241,27.9,24.9,11111222
BHP,ioos:station:wmo:42383:2,2021-05-17T01:18:00Z,27.3704,-89.9241,27.9,24.9,11111222
BHP,ioos:station:wmo:42383:2,2021-05-17T01:38:00Z,27.3704,-89.9241,27.9,24.8,11111222
BHP,ioos:station:wmo:42383:2,2021-05-17T01:58:00Z,27.3704,-89.9241,27.9,25.0,11111222
BHP,ioos:station:wmo:42383:2,2021-05-17T02:18:00Z,27.3704,-89.9241,27.9,24.9,11111222
BHP,ioos:station:wmo:42383:2,2021-05-17T02:38:00Z,27.3704,-89.9241,27.9,25.1,11111222
BHP,ioos:station:wmo:42383:2,2021-05-17T02:58:00Z,27.3704,-89.9241,27.9,25.0,11111222
BHP,ioos:station:wmo:42383:2,2021-05-17T03:18:00Z,27.3704,-89.9241,27.9,25.1,11111222
BHP,ioos:station:wmo:42383:2,2021-05-17T03:38:00Z,27.3704,-89.9241,27.9,25.4,11111222
BHP,ioos:station:wmo:42383:2,2021-05-17T03:58:00Z,27.3704,-89.9241,27.9,25.2,11111222
BHP,ioos:station:wmo:42383:2,2021-05-17T04:18:00Z,27.3704,-89.9241,27.9,25.1,11111222
BHP,ioos:station:wmo:42383:2,2021-05-17T04:38:00Z,27.3704,-89.9241,27.9,25.1,11111222
BHP,ioos:station:wmo:42383:2,2021-05-17T04:58:00Z,27.3704,-89.9241,27.9,25.1,11111222
BHP,ioos:station:wmo:42383:2,2021-05-17T05:18:00Z,27.3704,-89.9241,27.9,25.1,11111222
BHP,ioos:station:wmo:42383:2,2021-05-17T05:38:00Z,27.3704,-89.9241,27.9,25.1,11111222
BHP,ioos:station:wmo:42383:2,2021-05-17T05:58:00Z,27.3704,-89.9241,27.9,25.1,11111222
BHP,ioos:station:wmo:42383:2,2021-05-17T06:18:00Z,27.3704,-89.9241,27.9,25.2,11111222
BHP,ioos:station:wmo:42383:2,2021-05-17T06:38:00Z,27.3704,-89.9241,27.9,25.3,11111222
BHP,ioos:station:wmo:42383:2,2021-05-17T06:58:00Z,27.3704,-89.9241,27.9,25.6,11111222
BHP,ioos:station:wmo:42383:2,2021-05-17T07:18:00Z,27.3704,-89.9241,27.9,25.3,11111222
BHP,ioos:station:wmo:42383:2,2021-05-17T07:38:00Z,27.3704,-89.9241,27.9,25.3,11111222
BHP,ioos:station:wmo:42383:2,2021-05-17T07:58:00Z,27.3704,-89.9241,27.9,25.3,11111222
BHP,ioos:station:wmo:42383:2,2021-05-17T08:18:00Z,27.3704,-89.9241,27.9,25.1,11111222
BHP,ioos:station:wmo:42383:2,2021-05-17T08:38:00Z,27.3704,-89.9241,27.9,25.1,11111222
BHP,ioos:station:wmo:42383:2,2021-05-17T08:58:00Z,27.3704,-89.9241,27.9,25.7,11111222
BHP,ioos:station:wmo:42383:2,2021-05-17T09:18:00Z,27.3704,-89.9241,27.9,25.6,11111222
BHP,ioos:station:wmo:42383:2,2021-05-17T09:38:00Z,27.3704,-89.9241,27.9,25.7,11111222
BHP,ioos:station:wmo:42383:2,2021-05-17T09:58:00Z,27.3704,-89.9241,27.9,25.6,11111222
BHP,ioos:station:wmo:42383:2,2021-05-17T10:18:00Z,27.3704,-89.9241,27.9,25.7,11111222
BHP,ioos:station:wmo:42383:2,2021-05-17T10:38:00Z,27.3704,-89.9241,27.9,25.7,11111222
BHP,ioos:station:wmo:42383:2,2021-05-17T10:58:00Z,27.3704,-89.9241,27.9,25.8,11111222
BHP,ioos:station:wmo:42383:2,2021-05-17T11:18:00Z,27.3704,-89.9241,27.9,25.6,11111222
BHP,ioos:station:wmo:42383:2,2021-05-17T11:38:00Z,27.3704,-89.9241,27.9,25.7,11111222
BHP,ioos:station:wmo:42383:2,2021-05-17T11:58:00Z,27.3704,-89.9241,27.9,25.8,11111222
BHP,ioos:station:wmo:42383:2,2021-05-17T12:18:00Z,27.3704,-89.9241,27.9,25.7,11111222
BHP,ioos:station:wmo:42383:2,2021-05-17T12:38:00Z,27.3704,-89.9241,27.9,25.8,11111222
BHP,ioos:station:wmo:42383:2,2021-05-17T12:58:00Z,27.3704,-89.9241,27.9,25.8,11111222
BHP,ioos:station:wmo:42383:2,2021-05-17T13:18:00Z,27.3704,-89.9241,27.9,25.8,11111222
BHP,ioos:station:wmo:42383:2,2021-05-17T13:38:00Z,27.3704,-89.9241,27.9,25.7,11111222
BHP,ioos:station:wmo:42383:2,2021-05-17T13:58:00Z,27.3704,-89.9241,27.9,25.8,11111222
BHP,ioos:station:wmo:42383:2,2021-05-17T14:18:00Z,27.3704,-89.9241,27.9,25.7,11111222
BHP,ioos:station:wmo:42383:2,2021-05-17T14:38:00Z,27.3704,-89.9241,27.9,25.8,11111222
BHP,ioos:station:wmo:42383:2,2021-05-17T14:58:00Z,27.3704,-89.9241,27.9,25.8,11111222
BHP,ioos:station:wmo:42383:2,2021-05-17T15:18:00Z,27.3704,-89.9241,27.9,25.9,11111222
BHP,ioos:station:wmo:42383:2,2021-05-17T15:38:00Z,27.3704,-89.9241,27.9,25.9,11111222
BHP,ioos:station:wmo:42383:2,2021-05-17T15:58:00Z,27.3704,-89.9241,27.9,25.9,11111222
BHP,ioos:station:wmo:42383:2,2021-05-17T16:18:00Z,27.3704,-89.9241,27.9,25.9,11111222
BHP,ioos:station:wmo:42383:2,2021-05-17T16:38:00Z,27.3704,-89.9241,27.9,25.8,11111222
BHP,ioos:station:wmo:42383:2,2021-05-17T16:58:00Z,27.3704,-89.9241,27.9,26.0,11111222
BHP,ioos:station:wmo:42383:2,2021-05-17T17:18:00Z,27.3704,-89.9241,27.9,25.8,11111222
BHP,ioos:station:wmo:42383:2,2021-05-17T17:38:00Z,27.3704,-89.9241,27.9,25.8,11111222
BHP,ioos:station:wmo:42383:2,2021-05-17T17:58:00Z,27.3704,-89.9241,27.9,26.0,11111222
BHP,ioos:station:wmo:42383:2,2021-05-17T18:18:00Z,27.3704,-89.9241,27.9,25.9,11111222
BHP,ioos:station:wmo:42383:2,2021-05-17T18:38:00Z,27.3704,-89.9241,27.9,25.9,11111222
BHP,ioos:station:wmo:42383:2,2021-05-17T18:58:00Z,27.3704,-89.9241,27.9,25.9,11111222
BHP,ioos:station:wmo:42383:2,2021-05-17T19:18:00Z,27.3704,-89.9241,27.9,25.8,11111222
BHP,ioos:station:wmo:42383:2,2021-05-17T19:38:00Z,27.3704,-89.9241,27.9,26.0,11111222
BHP,ioos:station:wmo:42383:2,2021-05-17T19:58:00Z,27.3704,-89.9241,27.9,25.9,11111222
BHP,ioos:station:wmo:42383:2,2021-05-17T20:18:00Z,27.3704,-89.9241,27.9,25.9,11111222
BHP,ioos:station:wmo:42383:2,2021-05-17T20:38:00Z,27.3704,-89.9241,27.9,25.9,11111222
BHP,ioos:station:wmo:42383:2,2021-05-17T20:58:00Z,27.3704,-89.9241,27.9,26.0,11111222
BHP,ioos:station:wmo:42383:2,2021-05-17T21:18:00Z,27.3704,-89.9241,27.9,26.1,11111222
BHP,ioos:station:wmo:42383:2,2021-05-17T21:38:00Z,27.3704,-89.9241,27.9,25.9,11111222
BHP,ioos:station:wmo:42383:2,2021-05-17T21:58:00Z,27.3704,-89.9241,27.9,25.7,11111222
BHP,ioos:station:wmo:42383:2,2021-05-17T22:18:00Z,27.3704,-89.9241,27.9,25.4,11111222
BHP,ioos:station:wmo:42383:2,2021-05-17T22:38:00Z,27.3704,-89.9241,27.9,26.0,11111222
BHP,ioos:station:wmo:42383:2,2021-05-17T22:58:00Z,27.3704,-89.9241,27.9,25.4,11111222
BHP,ioos:station:wmo:42383:2,2021-05-17T23:18:00Z,27.3704,-89.9241,27.9,25.9,11111222
BHP,ioos:station:wmo:42383:2,2021-05-17T23:38:00Z,27.3704,-89.9241,27.9,25.9,11111222
BHP,ioos:station:wmo:42383:2,2021-05-17T23:58:00Z,27.3704,-89.9241,27.9,26.0,11111222
BHP,ioos:station:wmo:42383:2,2021-05-18T00:18:00Z,27.3704,-89.9241,27.9,26.0,11111222
BHP,ioos:station:wmo:42383:2,2021-05-18T00:38:00Z,27.3704,-89.9241,27.9,26.1,11111222
BHP,ioos:station:wmo:42383:2,2021-05-18T00:58:00Z,27.3704,-89.9241,27.9,26.0,11111222
BHP,ioos:station:wmo:42383:2,2021-05-18T01:18:00Z,27.3704,-89.9241,27.9,26.0,11111222
BHP,ioos:station:wmo:42383:2,2021-05-18T01:38:00Z,27.3704,-89.9241,27.9,26.0,11111222
BHP,ioos:station:wmo:42383:2,2021-05-18T01:58:00Z,27.3704,-89.9241,27.9,26.0,11111222
BHP,ioos:station:wmo:42383:2,2021-05-18T02:18:00Z,27.3704,-89.9241,27.9,25.8,11111222
BHP,ioos:station:wmo:42383:2,2021-05-18T02:38:00Z,27.3704,-89.9241,27.9,25.2,11111222
BHP,ioos:station:wmo:42383:2,2021-05-18T02:58:00Z,27.3704,-89.9241,27.9,25.6,11111222
BHP,ioos:station:wmo:42383:2,2021-05-18T03:18:00Z,27.3704,-89.9241,27.9,25.8,11111222
BHP,ioos:station:wmo:42383:2,2021-05-18T03:38:00Z,27.3704,-89.9241,27.9,25.6,11111222
BHP,ioos:station:wmo:42383:2,2021-05-18T03:58:00Z,27.3704,-89.9241,27.9,25.6,11111222
BHP,ioos:station:wmo:42383:2,2021-05-18T04:18:00Z,27.3704,-89.9241,27.9,25.6,11111222
BHP,ioos:station:wmo:42383:2,2021-05-18T04:38:00Z,27.3704,-89.9241,27.9,25.9,11111222
BHP,ioos:station:wmo:42383:2,2021-05-18T04:58:00Z,27.3704,-89.9241,27.9,25.7,11111222
BHP,ioos:station:wmo:42383:2,2021-05-18T05:18:00Z,27.3704,-89.9241,27.9,25.8,11111222
BHP,ioos:station:wmo:42383:2,2021-05-18T05:38:00Z,27.3704,-89.9241,27.9,25.6,11111222
BHP,ioos:station:wmo:42383:2,2021-05-18T05:58:00Z,27.3704,-89.9241,27.9,25.8,11111222
BHP,ioos:station:wmo:42383:2,2021-05-18T06:18:00Z,27.3704,-89.9241,27.9,25.8,11111222
BHP,ioos:station:wmo:42383:2,2021-05-18T06:38:00Z,27.3704,-89.9241,27.9,25.8,11111222
BHP,ioos:station:wmo:42383:2,2021-05-18T06:58:00Z,27.3704,-89.9241,27.9,25.5,11111222
BHP,ioos:station:wmo:42383:2,2021-05-18T07:18:00Z,27.3704,-89.9241,27.9,25.7,11111222
BHP,ioos:station:wmo:42383:2,2021-05-18T07:38:00Z,27.3704,-89.9241,27.9,25.9,11111222
BHP,ioos:station:wmo:42383:2,2021-05-18T07:58:00Z,27.3704,-89.9241,27.9,25.8,11111222
BHP,ioos:station:wmo:42383:2,2021-05-18T08:18:00Z,27.3704,-89.9241,27.9,25.8,11111222
BHP,ioos:station:wmo:42383:2,2021-05-18T08:38:00Z,27.3704,-89.9241,27.9,25.8,11111222
BHP,ioos:station:wmo:42383:2,2021-05-18T08:58:00Z,27.3704,-89.9241,27.9,25.9,11111222
BHP,ioos:station:wmo:42383:2,2021-05-18T09:18:00Z,27.3704,-89.9241,27.9,25.9,11111222
BHP,ioos:station:wmo:42383:2,2021-05-18T09:38:00Z,27.3704,-89.9241,27.9,26.0,11111222
BHP,ioos:station:wmo:42383:2,2021-05-18T09:58:00Z,27.3704,-89.9241,27.9,25.9,11111222
BHP,ioos:station:wmo:42383:2,2021-05-18T10:18:00Z,27.3704,-89.9241,27.9,26.0,11111222
BHP,ioos:station:wmo:42383:2,2021-05-18T10:38:00Z,27.3704,-89.9241,27.9,26.0,11111222
BHP,ioos:station:wmo:42383:2,2021-05-18T10:58:00Z,27.3704,-89.9241,27.9,25.9,11111222
BHP,ioos:station:wmo:42383:2,2021-05-18T11:18:00Z,27.3704,-89.9241,27.9,25.8,11111222
BHP,ioos:station:wmo:42383:2,2021-05-18T11:38:00Z,27.3704,-89.9241,27.9,25.7,11111222
BHP,ioos:station:wmo:42383:2,2021-05-18T11:58:00Z,27.3704,-89.9241,27.9,25.7,11111222
BHP,ioos:station:wmo:42383:2,2021-05-18T12:18:00Z,27.3704,-89.9241,27.9,25.6,11111222
BHP,ioos:station:wmo:42383:2,2021-05-18T12:38:00Z,27.3704,-89.9241,27.9,25.6,11111222
BHP,ioos:station:wmo:42383:2,2021-05-18T12:58:00Z,27.3704,-89.9241,27.9,25.6,11111222
BHP,ioos:station:wmo:42383:2,2021-05-18T13:18:00Z,27.3704,-89.9241,27.9,25.9,11111222
BHP,ioos:station:wmo:42383:2,2021-05-18T13:38:00Z,27.3704,-89.9241,27.9,26.0,11111222
BHP,ioos:station:wmo:42383:2,2021-05-18T13:58:00Z,27.3704,-89.9241,27.9,25.9,11111222
BHP,ioos:station:wmo:42383:2,2021-05-18T14:18:00Z,27.3704,-89.9241,27.9,26.0,11111222
BHP,ioos:station:wmo:42383:2,2021-05-18T14:38:00Z,27.3704,-89.9241,27.9,25.9,11111222
BHP,ioos:station:wmo:42383:2,2021-05-18T14:58:00Z,27.3704,-89.9241,27.9,26.0,11111222
BHP,ioos:station:wmo:42383:2,2021-05-18T15:18:00Z,27.3704,-89.9241,27.9,26.0,11111222